Yankton, SD

2:08 PM CDT on March 30, 2017 (GMT -0500)
Gurney Municipal

Weather History for KYKN - July, 2012

Change the Weather History Date:

Wednesday, July 4, 2012

  Actual Average Record
Temperature  
Mean Temperature 90 °F -  
Max Temperature 100 °F 86 °F 106 °F (1990)
Min Temperature 80 °F 61 °F 45 °F (1967)
Cooling Degree Days 25    
Growing Degree Days 40 (Base 50)    
Moisture  
Dew Point 65 °F    
Average Humidity 46    
Maximum Humidity 62    
Minimum Humidity 31    
Precipitation  
Precipitation 0.00 in - - ()
Sea Level Pressure  
Sea Level Pressure 29.73 in    
Wind  
Wind Speed 13 mph (South)    
Max Wind Speed 21 mph    
Max Gust Speed 29 mph    
Visibility 10 miles    
Events      
Averages and records for this station are not official NWS values.
T = Trace of Precipitation, MM = Missing Value Source: NWS Daily Summary

Daily Weather History Graph

Daily Weather History Graph

Search for Another Location

Airport or City:

Trip Planner

Search our weather history database for the weather conditions in past years. The results will help you decide how hot, cold, wet, or windy it might be!

Date:

Astronomy

Jul. 04, 2012 Rise Set
Actual Time 5:56 AM CDT 9:11 PM CDT
Civil Twilight 5:21 AM CDT 9:46 PM CDT
Nautical Twilight 4:36 AM CDT 10:31 PM CDT
Astronomical Twilight 3:41 AM CDT 11:25 PM CDT
Moon 9:47 PM CDT (7/4) 7:02 AM CDT (7/4)
Length of Visible Light 16h 24m
Length of Day
15h 14m
Full, 99% of the Moon is Illuminated
Jul 4
Full
Jul 10
Last Quarter
Jul 18
New
Jul 26
First Quarter
Aug 1
Full

Hourly Weather History & Observations

Time (CDT) Temp. Heat Index Dew Point Humidity Pressure Visibility Wind Dir Wind Speed Gust Speed Precip Events Conditions
12:15 AM 86.0 °F 87.3 °F 64.4 °F 48% 29.72 in 10.0 mi South 16.1 mph 21.9 mph N/A   Clear
12:35 AM 84.2 °F 85.6 °F 64.4 °F 51% 29.73 in 10.0 mi South 12.7 mph - N/A   Clear
12:55 AM 84.2 °F 85.6 °F 64.4 °F 51% 29.72 in 10.0 mi South 11.5 mph - N/A   Clear
1:15 AM 84.2 °F 85.6 °F 64.4 °F 51% 29.72 in 10.0 mi South 11.5 mph - N/A   Clear
1:35 AM 82.4 °F 83.9 °F 64.4 °F 54% 29.72 in 10.0 mi South 15.0 mph 18.4 mph N/A   Clear
1:55 AM 82.4 °F 83.9 °F 64.4 °F 54% 29.72 in 10.0 mi South 10.4 mph - N/A   Clear
2:15 AM 82.4 °F 83.9 °F 64.4 °F 54% 29.73 in 10.0 mi South 11.5 mph - N/A   Clear
2:35 AM 80.6 °F 82.3 °F 64.4 °F 58% 29.73 in 10.0 mi South 9.2 mph - N/A   Clear
3:15 AM 80.6 °F 82.3 °F 64.4 °F 58% 29.72 in 10.0 mi South 8.1 mph - N/A   Clear
3:35 AM 80.6 °F 82.3 °F 64.4 °F 58% 29.72 in 10.0 mi South 8.1 mph - N/A   Clear
3:55 AM 80.6 °F 82.3 °F 64.4 °F 58% 29.72 in 10.0 mi South 9.2 mph - N/A   Clear
4:15 AM 80.6 °F 81.8 °F 62.6 °F 54% 29.72 in 10.0 mi South 8.1 mph - N/A   Clear
4:35 AM 80.6 °F 81.8 °F 62.6 °F 54% 29.72 in 10.0 mi South 11.5 mph - N/A   Clear
4:55 AM 80.6 °F 81.8 °F 62.6 °F 54% 29.72 in 10.0 mi South 9.2 mph - N/A   Clear
5:15 AM 80.6 °F 81.8 °F 62.6 °F 54% 29.71 in 10.0 mi South 8.1 mph - N/A   Clear
5:35 AM 80.6 °F 81.8 °F 62.6 °F 54% 29.71 in 10.0 mi South 13.8 mph - N/A   Clear
5:55 AM 80.6 °F 81.8 °F 62.6 °F 54% 29.72 in 10.0 mi South 13.8 mph 19.6 mph N/A   Clear
6:15 AM 80.6 °F 81.8 °F 62.6 °F 54% 29.72 in 10.0 mi South 12.7 mph - N/A   Clear
6:35 AM 80.6 °F 81.8 °F 62.6 °F 54% 29.72 in 10.0 mi South 12.7 mph 21.9 mph N/A   Clear
6:55 AM 80.6 °F 81.8 °F 62.6 °F 54% 29.72 in 10.0 mi South 12.7 mph 20.7 mph N/A   Clear
7:15 AM 80.6 °F 81.8 °F 62.6 °F 54% 29.73 in 10.0 mi South 12.7 mph 19.6 mph N/A   Clear
7:35 AM 82.4 °F 83.4 °F 62.6 °F 51% 29.73 in 10.0 mi South 13.8 mph 18.4 mph N/A   Clear
7:55 AM 82.4 °F 83.4 °F 62.6 °F 51% 29.73 in 10.0 mi SSW 13.8 mph 19.6 mph N/A   Clear
8:15 AM 82.4 °F 83.4 °F 62.6 °F 51% 29.73 in 10.0 mi South 16.1 mph 23.0 mph N/A   Clear
8:35 AM 84.2 °F 85.0 °F 62.6 °F 48% 29.73 in 10.0 mi South 17.3 mph 23.0 mph N/A   Clear
8:55 AM 86.0 °F 86.6 °F 62.6 °F 45% 29.74 in 10.0 mi SW 10.4 mph - N/A   Clear
9:15 AM - - - N/A% - 10.0 mi North - - N/A   Clear
9:35 AM 89.6 °F 90.1 °F 62.6 °F 40% 29.73 in 10.0 mi SSW 17.3 mph 20.7 mph N/A   Clear
9:55 AM 89.6 °F 91.1 °F 64.4 °F 43% 29.73 in 10.0 mi SSW 12.7 mph 18.4 mph N/A   Clear
10:15 AM 91.4 °F 93.2 °F 64.4 °F 41% 29.73 in 10.0 mi South 12.7 mph 21.9 mph N/A   Clear
10:35 AM 91.4 °F 93.2 °F 64.4 °F 41% 29.73 in 10.0 mi South 11.5 mph 19.6 mph N/A   Clear
10:55 AM 93.2 °F 94.9 °F 64.4 °F 38% 29.73 in 10.0 mi South 11.5 mph 20.7 mph N/A   Clear
11:15 AM 93.2 °F 96.2 °F 66.2 °F 41% 29.73 in 10.0 mi South 15.0 mph 20.7 mph N/A   Clear
11:35 AM 95.0 °F 98.5 °F 66.2 °F 39% 29.74 in 10.0 mi SSE 13.8 mph 19.6 mph N/A   Clear
11:55 AM 95.0 °F 98.5 °F 66.2 °F 39% 29.74 in 10.0 mi South 12.7 mph 23.0 mph N/A   Clear
12:15 PM 96.8 °F 100.7 °F 66.2 °F 37% 29.74 in 10.0 mi South 13.8 mph 19.6 mph N/A   Clear
12:35 PM 96.8 °F 100.7 °F 66.2 °F 37% 29.74 in 10.0 mi SSE 15.0 mph - N/A   Clear
12:55 PM 96.8 °F 100.7 °F 66.2 °F 37% 29.74 in 10.0 mi South 13.8 mph - N/A   Clear
1:15 PM 98.6 °F 102.8 °F 66.2 °F 35% 29.73 in 10.0 mi SSE 16.1 mph - N/A   Clear
1:35 PM 98.6 °F 102.8 °F 66.2 °F 35% 29.73 in 10.0 mi South 16.1 mph 20.7 mph N/A   Clear
1:55 PM 98.6 °F 102.8 °F 66.2 °F 35% 29.73 in 10.0 mi South 19.6 mph 24.2 mph N/A   Clear
2:15 PM 98.6 °F 101.0 °F 64.4 °F 32% 29.73 in 10.0 mi South 13.8 mph 21.9 mph N/A   Clear
2:35 PM 100.4 °F 103.6 °F 64.4 °F 31% 29.73 in 10.0 mi SSE 18.4 mph 24.2 mph N/A   Clear
2:55 PM 100.4 °F 103.6 °F 64.4 °F 31% 29.73 in 10.0 mi South 17.3 mph 26.5 mph N/A   Clear
3:15 PM 100.4 °F 103.6 °F 64.4 °F 31% 29.73 in 10.0 mi South 17.3 mph 28.8 mph N/A   Clear
3:35 PM 100.4 °F 103.6 °F 64.4 °F 31% 29.73 in 10.0 mi South 16.1 mph 23.0 mph N/A   Clear
3:55 PM 100.4 °F 103.6 °F 64.4 °F 31% 29.73 in 10.0 mi South 13.8 mph 20.7 mph N/A   Clear
4:15 PM 100.4 °F 103.6 °F 64.4 °F 31% 29.73 in 10.0 mi South 17.3 mph 23.0 mph N/A   Clear
4:35 PM 100.4 °F 103.6 °F 64.4 °F 31% 29.72 in 10.0 mi South 17.3 mph 23.0 mph N/A   Clear
4:55 PM 100.4 °F 104.9 °F 66.2 °F 33% 29.72 in 10.0 mi South 16.1 mph - N/A   Clear
5:15 PM 98.6 °F 102.8 °F 66.2 °F 35% 29.72 in 10.0 mi South 19.6 mph 24.2 mph N/A   Clear
5:35 PM 98.6 °F 102.8 °F 66.2 °F 35% 29.72 in 10.0 mi South 20.7 mph 25.3 mph N/A   Clear
5:55 PM 98.6 °F 102.8 °F 66.2 °F 35% 29.72 in 10.0 mi South 18.4 mph 23.0 mph N/A   Clear
6:15 PM 96.8 °F 101.8 °F 68.0 °F 39% 29.72 in 10.0 mi South 19.6 mph - N/A   Clear
6:35 PM 96.8 °F 101.8 °F 68.0 °F 39% 29.72 in 10.0 mi South 15.0 mph 24.2 mph N/A   Clear
6:55 PM 95.0 °F 101.3 °F 69.8 °F 44% 29.73 in 10.0 mi South 15.0 mph 18.4 mph N/A   Clear
7:15 PM 93.2 °F 98.8 °F 69.8 °F 46% 29.74 in 10.0 mi South 12.7 mph 19.6 mph N/A   Clear
7:35 PM 93.2 °F 98.8 °F 69.8 °F 46% 29.74 in 10.0 mi South 11.5 mph - N/A   Clear
7:55 PM 93.2 °F 98.8 °F 69.8 °F 46% 29.75 in 10.0 mi South 11.5 mph 17.3 mph N/A   Clear
8:15 PM 91.4 °F 96.8 °F 69.8 °F 49% 29.74 in 10.0 mi South 11.5 mph - N/A   Clear
8:35 PM 91.4 °F 96.8 °F 69.8 °F 49% 29.75 in 10.0 mi SSE 8.1 mph - N/A   Clear
8:55 PM 89.6 °F 94.7 °F 69.8 °F 52% 29.75 in 10.0 mi SSE 10.4 mph - N/A   Clear
9:15 PM 89.6 °F 94.7 °F 69.8 °F 52% 29.75 in 10.0 mi SSE 8.1 mph - N/A   Clear
9:35 PM 87.8 °F 92.6 °F 69.8 °F 55% 29.75 in 10.0 mi SSE 9.2 mph - N/A   Clear
9:55 PM 87.8 °F 92.6 °F 69.8 °F 55% 29.75 in 10.0 mi SSE 8.1 mph - N/A   Clear
10:15 PM 87.8 °F 91.4 °F 68.0 °F 52% 29.76 in 10.0 mi SE 4.6 mph - N/A   Clear
10:35 PM 86.0 °F 89.4 °F 68.0 °F 55% 29.77 in 10.0 mi ESE 4.6 mph - N/A   Clear
10:55 PM 84.2 °F 87.3 °F 68.0 °F 58% 29.77 in 10.0 mi SSE 4.6 mph - N/A   Clear
11:35 PM 84.2 °F 87.3 °F 68.0 °F 58% 29.78 in 10.0 mi North 3.5 mph - N/A   Clear
11:55 PM 82.4 °F 85.4 °F 68.0 °F 62% 29.79 in 10.0 mi Calm Calm - N/A   Clear